Content
SEND FEEDBACK

Daily
Averages
Monthly
Summary
United States of America

WALNUT GROVE, ALABAMA


Home > North America > United States > Alabama
Elevation: 85 feet     Latitude: 34 04N     Longitude: 086 19W

WEATHER
 
SELECT A DAY
Number of Records: 213,034;   Date Range: 3/15/06 - 11/24/14
 
SHARE

PRINT THIS DATA

[ ← Previous Day ]
WEATHER ALMANAC - JANUARY 31, 2013
[ Next Day → ]
[ °C ]   °F
Weather ElementAverageHighLow
Temperature38.9 °F48.2 °F (2:15 pm)32 °F (3:55 am)
Dewpoint25.2 °F28.4 °F (11:15 pm)21.2 °F (1:15 pm)
Humidity60.2 %80 % (3:55 am)34 % (2:15 pm)
Barometer30.09 in30.16 in (11:15 am)29.96 in (12:55 am)
Wind Speed10.6 mph17.3 mph (8:55 am)
Wind Gust25.3 mph (12:55 am)
Weather ElementAverage
Visibility10 mi
Wind DirectionWSW (257.9 °)

Weather ElementTotal
Precipitation---
Heating Degree Days24.9 (Base 65)
Averaged from 68 records on January 31, 2013
WEATHER CONDITIONS BREAKOUT
WIND DIRECTION BREAKOUT
WEATHER BY HOUR - JANUARY 31, 2013
[ °C ]   °F
Local TimeTemperatureDewpointHumidityBarometerVisibilityWind DirectionWind SpeedGust SpeedPrecipitationEventsConditions
12:55 AM35.6 °F26.6 °F70 %29.96 in10.0 miWest (270°)15.0 mph25.3 mphOvercast
1:15 AM35.6 °F26.6 °F70 %29.97 in10.0 miWest (280°)12.7 mph20.7 mphOvercast
1:35 AM35.6 °F26.6 °F70 %29.97 in10.0 miWest (280°)11.5 mph17.3 mphOvercast
1:55 AM35.6 °F26.6 °F70 %29.98 in10.0 miWest (280°)11.5 mph21.9 mphOvercast
2:15 AM35.6 °F26.6 °F70 %29.98 in10.0 miWest (280°)13.8 mph17.3 mphOvercast
2:35 AM35.6 °F26.6 °F70 %29.98 in10.0 miWest (280°)11.5 mph23.0 mphOvercast
2:55 AM33.8 °F26.6 °F75 %29.98 in10.0 miWest (280°)15.0 mphOvercast
3:15 AM33.8 °F24.8 °F70 %29.98 in10.0 miWest (270°)13.8 mph20.7 mphScattered Clouds
3:35 AM33.8 °F24.8 °F70 %29.99 in10.0 miWest (280°)10.4 mph17.3 mphScattered Clouds
3:55 AM32.0 °F26.6 °F80 %30.00 in10.0 miWSW (250°)5.8 mphScattered Clouds
4:15 AM32.0 °F26.6 °F80 %30.00 in10.0 miWest (260°)8.1 mphMostly Cloudy
4:35 AM32.0 °F26.6 °F80 %30.01 in10.0 miWest (260°)8.1 mphScattered Clouds
4:55 AM32.0 °F26.6 °F80 %30.02 in10.0 miWest (260°)6.9 mphClear
5:15 AM32.0 °F26.6 °F80 %30.03 in10.0 miWSW (250°)6.9 mphClear
5:35 AM32.0 °F26.6 °F80 %30.04 in10.0 miWSW (250°)8.1 mphClear
5:55 AM32.0 °F26.6 °F80 %30.05 in10.0 miWest (260°)8.1 mphScattered Clouds
6:15 AM32.0 °F26.6 °F80 %30.04 in10.0 miWest (260°)8.1 mphScattered Clouds
6:35 AM32.0 °F26.6 °F80 %30.05 in10.0 miWest (260°)10.4 mphClear
6:55 AM32.0 °F26.6 °F80 %30.06 in10.0 miWest (270°)10.4 mphClear
7:15 AM32.0 °F26.6 °F80 %30.07 in10.0 miWest (270°)9.2 mphClear
7:35 AM32.0 °F26.6 °F80 %30.08 in10.0 miWest (260°)12.7 mph17.3 mphClear
7:55 AM32.0 °F26.6 °F80 %30.08 in10.0 miWest (280°)11.5 mph17.3 mphClear
8:15 AM32.0 °F26.6 °F80 %30.09 in10.0 miWNW (290°)13.8 mph17.3 mphClear
8:35 AM33.8 °F26.6 °F75 %30.11 in10.0 miWest (280°)15.0 mph21.9 mphScattered Clouds
8:55 AM33.8 °F26.6 °F75 %30.10 in10.0 miWNW (290°)17.3 mph21.9 mphScattered Clouds
9:15 AM33.8 °F26.6 °F75 %30.12 in10.0 miWNW (300°)13.8 mphScattered Clouds
9:35 AM35.6 °F26.6 °F70 %30.14 in10.0 miWNW (290°)10.4 mphScattered Clouds
9:55 AM35.6 °F26.6 °F70 %30.14 in10.0 miWest (280°)13.8 mph18.4 mphScattered Clouds
10:15 AM35.6 °F24.8 °F65 %30.14 in10.0 miWNW (300°)9.2 mphClear
10:35 AM37.4 °F24.8 °F60 %30.15 in10.0 miWNW (290°)11.5 mphClear
10:55 AM39.2 °F24.8 °F56 %30.15 in10.0 miWest (280°)12.7 mphClear
11:15 AM41.0 °F23.0 °F49 %30.16 in10.0 miWNW (290°)11.5 mph17.3 mphClear
11:35 AM41.0 °F23.0 °F49 %30.14 in10.0 miWNW (290°)13.8 mph19.6 mphClear
11:55 AM41.0 °F23.0 °F49 %30.14 in10.0 miWNW (300°)13.8 mph17.3 mphClear
12:15 PM42.8 °F23.0 °F46 %30.14 in10.0 miWNW (300°)9.2 mphClear
12:35 PM44.6 °F23.0 °F43 %30.13 in10.0 miWNW (290°)11.5 mph18.4 mphClear
12:55 PM44.6 °F23.0 °F43 %30.12 in10.0 miWest (280°)10.4 mph17.3 mphClear
1:15 PM46.4 °F21.2 °F37 %30.11 in10.0 miWest (270°)10.4 mphClear
1:35 PM46.4 °F23.0 °F40 %30.12 in10.0 miSW (230°)8.1 mph18.4 mphClear
1:55 PM46.4 °F21.2 °F37 %30.12 in10.0 miWest (260°)12.7 mph21.9 mphClear
2:15 PM48.2 °F21.2 °F34 %30.11 in10.0 miWest (280°)15.0 mphClear
2:35 PM48.2 °F21.2 °F34 %30.11 in10.0 miWest (280°)13.8 mph18.4 mphClear
2:55 PM48.2 °F21.2 °F34 %30.10 in10.0 miWest (260°)10.4 mphClear
3:15 PM48.2 °F21.2 °F34 %30.11 in10.0 miWNW (290°)12.7 mphClear
3:55 PM48.2 °F23.0 °F37 %30.09 in10.0 miWSW (250°)13.8 mphClear
4:15 PM46.4 °F23.0 °F40 %30.09 in10.0 miSW (230°)11.5 mph16.1 mphClear
4:35 PM46.4 °F21.2 °F37 %30.09 in10.0 miWSW (250°)17.3 mphClear
4:55 PM46.4 °F23.0 °F40 %30.09 in10.0 miWSW (240°)9.2 mphClear
5:15 PM44.6 °F23.0 °F43 %30.09 in10.0 miSW (230°)9.2 mphClear
5:35 PM42.8 °F24.8 °F49 %30.09 in10.0 miSW (220°)8.1 mphClear
5:55 PM42.8 °F24.8 °F49 %30.09 in10.0 miSW (220°)6.9 mphClear
6:15 PM42.8 °F24.8 °F49 %30.11 in10.0 miSW (220°)6.9 mphClear
6:35 PM41.0 °F24.8 °F53 %30.11 in10.0 miSW (230°)5.8 mphClear
6:55 PM41.0 °F24.8 °F53 %30.12 in10.0 miSW (230°)8.1 mphClear
7:15 PM41.0 °F24.8 °F53 %30.12 in10.0 miSW (230°)8.1 mphClear
7:35 PM41.0 °F24.8 °F53 %30.13 in10.0 miSW (230°)6.9 mphClear
8:15 PM41.0 °F26.6 °F57 %30.12 in10.0 miSSW (200°)8.1 mphClear
8:35 PM39.2 °F26.6 °F61 %30.12 in10.0 miSSW (200°)9.2 mphClear
8:55 PM39.2 °F26.6 °F61 %30.12 in10.0 miSW (220°)9.2 mphClear
9:15 PM39.2 °F26.6 °F61 %30.13 in10.0 miSW (220°)8.1 mphClear
9:35 PM41.0 °F26.6 °F57 %30.14 in10.0 miSW (230°)11.5 mph16.1 mphClear
9:55 PM41.0 °F26.6 °F57 %30.14 in10.0 miSW (230°)11.5 mph17.3 mphClear
10:15 PM41.0 °F26.6 °F57 %30.14 in10.0 miSW (230°)11.5 mphClear
10:35 PM41.0 °F26.6 °F57 %30.13 in10.0 miSW (230°)9.2 mphClear
10:55 PM41.0 °F26.6 °F57 %30.14 in10.0 miSW (230°)9.2 mphClear
11:15 PM41.0 °F28.4 °F61 %30.13 in10.0 miSW (220°)6.9 mphClear
11:35 PM41.0 °F28.4 °F61 %30.13 in10.0 miSW (220°)8.1 mphClear
11:55 PM41.0 °F28.4 °F61 %30.12 in10.0 miSW (220°)8.1 mphClear
Hourly data recorded from K8A0, located miles away from Walnut Grove, Alabama







STORIES FROM OUR PARTNERS